TEMELIN Weather Reports


Display with metric or nautical units.
time (UTC)temp
F
wind
direction
speed
MPH
gust
MPH
rain 1hr
in
rain 24hr
in
rain mn
in
humidity
%
barometer
mb
20260508042025 43 230 2.0 0.0 0.00 0.00 0.00 93
20260508031817 45 330 2.0 0.0 0.00 0.00 0.00 93
20260508021818 43 310 2.0 0.0 0.00 0.00 0.00 93
20260508011918 45 250 5.0 0.0 0.00 0.00 0.00 93
20260508001817 46 310 2.0 0.0 0.00 0.00 0.00 87
20260507231817 46 120 2.0 0.0 0.00 0.00 0.00 87
20260507222121 48 240 2.0 0.0 0.00 0.00 0.00 81
20260507211820 48 300 9.0 0.0 0.00 0.00 0.00 81
20260507201822 50 310 5.0 0.0 0.00 0.00 0.00 81
20260507191921 50 330 7.0 0.0 0.00 0.00 0.00 81
20260507181818 54 310 12.0 0.0 0.00 0.00 0.00 71
20260507171818 55 300 12.0 0.0 0.00 0.00 0.00 66
20260507162121 57 290 14.0 0.0 0.00 0.00 0.00 58
20260507151817 59 280 9.0 0.0 0.00 0.00 0.00 58
20260507141821 59 280 9.0 0.0 0.00 0.00 0.00 54
20260507131921 59 230 7.0 0.0 0.00 0.00 0.00 54
20260507121819 57 260 9.0 0.0 0.00 0.00 0.00 62
20260507111820 61 250 12.0 0.0 0.00 0.00 0.00 59
20260507102032 57 260 7.0 0.0 0.00 0.00 0.00 62
20260507091818 57 240 9.0 0.0 0.00 0.00 0.00 62
20260507081818 55 250 12.0 0.0 0.00 0.00 0.00 66
20260507071820 55 230 14.0 0.0 0.00 0.00 0.00 71
20260507061818 54 230 9.0 0.0 0.00 0.00 0.00 76
20260507051817 48 230 9.0 0.0 0.00 0.00 0.00 93